Year,Month,Day,Hour,Minute,Value (Times are PST for temperature in C)
2022,04,17,00,00,6.80
2022,04,17,00,01,6.80
2022,04,17,00,02,6.80
2022,04,17,00,03,6.80
2022,04,17,00,04,6.70
2022,04,17,00,05,6.70
2022,04,17,00,06,6.70
2022,04,17,00,07,6.70
2022,04,17,00,08,6.70
2022,04,17,00,09,6.70
2022,04,17,00,10,6.60
2022,04,17,00,11,6.70
2022,04,17,00,12,6.60
2022,04,17,00,13,6.70
2022,04,17,00,14,6.70
2022,04,17,00,15,6.70
2022,04,17,00,16,6.70
2022,04,17,00,17,6.70
2022,04,17,00,18,6.60
2022,04,17,00,19,6.60
2022,04,17,00,20,6.60
2022,04,17,00,21,6.60
2022,04,17,00,22,6.60
2022,04,17,00,23,6.60
2022,04,17,00,24,6.60
2022,04,17,00,25,6.50
2022,04,17,00,26,6.50
2022,04,17,00,27,6.50
2022,04,17,00,28,6.50
2022,04,17,00,29,6.50
2022,04,17,00,30,6.50
2022,04,17,00,31,6.50
2022,04,17,00,32,6.50
2022,04,17,00,33,6.50
2022,04,17,00,34,6.50
2022,04,17,00,35,6.50
2022,04,17,00,36,6.50
2022,04,17,00,37,6.50
2022,04,17,00,38,6.50
2022,04,17,00,39,6.50
2022,04,17,00,40,6.40
2022,04,17,00,41,6.40
2022,04,17,00,42,6.40
2022,04,17,00,43,6.40
2022,04,17,00,44,6.40
2022,04,17,00,45,6.50
2022,04,17,00,46,6.50
2022,04,17,00,47,6.50
2022,04,17,00,48,6.50
2022,04,17,00,49,6.40
2022,04,17,00,50,6.40
2022,04,17,00,51,6.40
2022,04,17,00,52,6.40
2022,04,17,00,53,6.40
2022,04,17,00,54,6.40
2022,04,17,00,55,6.30
2022,04,17,00,56,6.30
2022,04,17,00,57,6.30
2022,04,17,00,58,6.30
2022,04,17,00,59,6.30
2022,04,17,01,00,6.30
2022,04,17,01,01,6.30
2022,04,17,01,02,6.30
2022,04,17,01,03,6.30
2022,04,17,01,04,6.30
2022,04,17,01,05,6.20
2022,04,17,01,06,6.20
2022,04,17,01,07,6.20
2022,04,17,01,08,6.20
2022,04,17,01,09,6.20
2022,04,17,01,10,6.20
2022,04,17,01,11,6.20
2022,04,17,01,12,6.20
2022,04,17,01,13,6.20
2022,04,17,01,14,6.20
2022,04,17,01,15,6.20
2022,04,17,01,16,6.20
2022,04,17,01,17,6.10
2022,04,17,01,18,6.10
2022,04,17,01,19,6.10
2022,04,17,01,20,6.10
2022,04,17,01,21,6.10
2022,04,17,01,22,6.10
2022,04,17,01,23,6.10
2022,04,17,01,24,6.10
2022,04,17,01,25,6.10
2022,04,17,01,26,6.10
2022,04,17,01,27,6.10
2022,04,17,01,28,6.00
2022,04,17,01,29,6.00
2022,04,17,01,30,6.00
2022,04,17,01,31,6.00
2022,04,17,01,32,6.00
2022,04,17,01,33,6.00
2022,04,17,01,34,6.00
2022,04,17,01,35,6.00
2022,04,17,01,36,5.90
2022,04,17,01,37,6.00
2022,04,17,01,38,6.00
2022,04,17,01,39,6.00
2022,04,17,01,40,6.00
2022,04,17,01,41,6.00
2022,04,17,01,42,6.00
2022,04,17,01,43,6.00
2022,04,17,01,44,6.00
2022,04,17,01,45,6.00
2022,04,17,01,46,6.00
2022,04,17,01,47,6.00
2022,04,17,01,48,6.00
2022,04,17,01,49,6.00
2022,04,17,01,50,6.00
2022,04,17,01,51,6.10
2022,04,17,01,52,6.00
2022,04,17,01,53,6.00
2022,04,17,01,54,6.00
2022,04,17,01,55,6.00
2022,04,17,01,56,6.00
2022,04,17,01,57,6.00
2022,04,17,01,58,6.00
2022,04,17,01,59,6.00
2022,04,17,02,00,6.00
2022,04,17,02,01,6.00
2022,04,17,02,02,6.00
2022,04,17,02,03,6.00
2022,04,17,02,04,6.00
2022,04,17,02,05,6.10
2022,04,17,02,06,6.10
2022,04,17,02,07,6.00
2022,04,17,02,08,6.00
2022,04,17,02,09,5.90
2022,04,17,02,10,5.90
2022,04,17,02,11,5.90
2022,04,17,02,12,5.90
2022,04,17,02,13,5.90
2022,04,17,02,14,5.90
2022,04,17,02,15,5.90
2022,04,17,02,16,5.90
2022,04,17,02,17,5.90
2022,04,17,02,18,5.80
2022,04,17,02,19,5.80
2022,04,17,02,20,5.80
2022,04,17,02,21,5.70
2022,04,17,02,22,5.70
2022,04,17,02,23,5.70
2022,04,17,02,24,5.80
2022,04,17,02,25,5.80
2022,04,17,02,26,5.80
2022,04,17,02,27,5.80
2022,04,17,02,28,5.80
2022,04,17,02,29,5.80
2022,04,17,02,30,5.70
2022,04,17,02,31,5.50
2022,04,17,02,32,5.30
2022,04,17,02,33,5.00
2022,04,17,02,34,4.70
2022,04,17,02,35,4.30
2022,04,17,02,36,4.10
2022,04,17,02,37,3.90
2022,04,17,02,38,3.70
2022,04,17,02,39,3.60
2022,04,17,02,40,3.40
2022,04,17,02,41,3.40
2022,04,17,02,42,3.30
2022,04,17,02,43,3.20
2022,04,17,02,44,3.20
2022,04,17,02,45,3.10
2022,04,17,02,46,3.00
2022,04,17,02,47,3.00
2022,04,17,02,48,3.00
2022,04,17,02,49,2.90
2022,04,17,02,50,2.90
2022,04,17,02,51,2.80
2022,04,17,02,52,2.80
2022,04,17,02,53,2.70
2022,04,17,02,54,2.70
2022,04,17,02,55,2.70
2022,04,17,02,56,2.70
2022,04,17,02,57,2.70
2022,04,17,02,58,2.70
2022,04,17,02,59,2.80
2022,04,17,03,00,2.90
2022,04,17,03,01,2.90
2022,04,17,03,02,3.00
2022,04,17,03,03,3.00
2022,04,17,03,04,3.00
2022,04,17,03,05,3.10
2022,04,17,03,06,3.10
2022,04,17,03,07,3.00
2022,04,17,03,08,3.00
2022,04,17,03,09,3.00
2022,04,17,03,10,2.90
2022,04,17,03,11,2.90
2022,04,17,03,12,2.80
2022,04,17,03,13,2.70
2022,04,17,03,14,2.60
2022,04,17,03,15,2.50
2022,04,17,03,16,2.40
2022,04,17,03,17,2.40
2022,04,17,03,18,2.30
2022,04,17,03,19,2.20
2022,04,17,03,20,2.10
2022,04,17,03,21,2.10
2022,04,17,03,22,2.00
2022,04,17,03,23,2.00
2022,04,17,03,24,1.90
2022,04,17,03,25,1.90
2022,04,17,03,26,1.90
2022,04,17,03,27,2.00
2022,04,17,03,28,2.10
2022,04,17,03,29,2.10
2022,04,17,03,30,2.20
2022,04,17,03,31,2.20
2022,04,17,03,32,2.20
2022,04,17,03,33,2.20
2022,04,17,03,34,2.30
2022,04,17,03,35,2.40
2022,04,17,03,36,2.40
2022,04,17,03,37,2.40
2022,04,17,03,38,2.50
2022,04,17,03,39,2.50
2022,04,17,03,40,2.50
2022,04,17,03,41,2.50
2022,04,17,03,42,2.60
2022,04,17,03,43,2.70
2022,04,17,03,44,2.70
2022,04,17,03,45,2.70
2022,04,17,03,46,2.80
2022,04,17,03,47,2.80
2022,04,17,03,48,2.90
2022,04,17,03,49,2.90
2022,04,17,03,50,3.00
2022,04,17,03,51,3.10
2022,04,17,03,52,3.20
2022,04,17,03,53,3.30
2022,04,17,03,54,3.50
2022,04,17,03,55,3.60
2022,04,17,03,56,3.70
2022,04,17,03,57,3.70
2022,04,17,03,58,3.70
2022,04,17,03,59,3.70
2022,04,17,04,00,3.70
2022,04,17,04,01,3.70
2022,04,17,04,02,3.60
2022,04,17,04,03,3.60
2022,04,17,04,04,3.60
2022,04,17,04,05,3.50
2022,04,17,04,06,3.40
2022,04,17,04,07,3.40
2022,04,17,04,08,3.30
2022,04,17,04,09,3.20
2022,04,17,04,10,3.10
2022,04,17,04,11,3.10
2022,04,17,04,12,2.90
2022,04,17,04,13,2.80
2022,04,17,04,14,2.70
2022,04,17,04,15,2.50
2022,04,17,04,16,2.40
2022,04,17,04,17,2.30
2022,04,17,04,18,2.20
2022,04,17,04,19,2.10
2022,04,17,04,20,2.00
2022,04,17,04,21,1.90
2022,04,17,04,22,1.80
2022,04,17,04,23,1.70
2022,04,17,04,24,1.70
2022,04,17,04,25,1.70
2022,04,17,04,26,1.70
2022,04,17,04,27,1.70
2022,04,17,04,28,1.70
2022,04,17,04,29,1.70
2022,04,17,04,30,1.60
2022,04,17,04,31,1.60
2022,04,17,04,32,1.60
2022,04,17,04,33,1.60
2022,04,17,04,34,1.70
2022,04,17,04,35,1.70
2022,04,17,04,36,1.80
2022,04,17,04,37,1.80
2022,04,17,04,38,1.90
2022,04,17,04,39,2.00
2022,04,17,04,40,2.10
2022,04,17,04,41,2.20
2022,04,17,04,42,2.40
2022,04,17,04,43,2.40
2022,04,17,04,44,2.50
2022,04,17,04,45,2.50
2022,04,17,04,46,2.50
2022,04,17,04,47,2.60
2022,04,17,04,48,2.60
2022,04,17,04,49,2.70
2022,04,17,04,50,2.70
2022,04,17,04,51,2.80
2022,04,17,04,52,2.90
2022,04,17,04,53,3.00
2022,04,17,04,54,3.10
2022,04,17,04,55,3.20
2022,04,17,04,56,3.20
2022,04,17,04,57,3.30
2022,04,17,04,58,3.40
2022,04,17,04,59,3.50
2022,04,17,05,00,3.60
2022,04,17,05,01,3.70
2022,04,17,05,02,3.70
2022,04,17,05,03,3.70
2022,04,17,05,04,3.70
2022,04,17,05,05,3.60
2022,04,17,05,06,3.50
2022,04,17,05,07,3.40
2022,04,17,05,08,3.20
2022,04,17,05,09,3.10
2022,04,17,05,10,2.80
2022,04,17,05,11,2.60
2022,04,17,05,12,2.40
2022,04,17,05,13,2.20
2022,04,17,05,14,2.00
2022,04,17,05,15,1.80
2022,04,17,05,16,1.70
2022,04,17,05,17,1.60
2022,04,17,05,18,1.60
2022,04,17,05,19,1.60
2022,04,17,05,20,1.70
2022,04,17,05,21,1.80
2022,04,17,05,22,1.80
2022,04,17,05,23,1.80
2022,04,17,05,24,1.80
2022,04,17,05,25,1.80
2022,04,17,05,26,1.80
2022,04,17,05,27,1.80
2022,04,17,05,28,1.80
2022,04,17,05,29,1.90
2022,04,17,05,30,1.90
2022,04,17,05,31,1.90
2022,04,17,05,32,1.90
2022,04,17,05,33,1.90
2022,04,17,05,34,1.80
2022,04,17,05,35,1.80
2022,04,17,05,36,1.70
2022,04,17,05,37,1.70
2022,04,17,05,38,1.70
2022,04,17,05,39,1.60
2022,04,17,05,40,1.60
2022,04,17,05,41,1.60
2022,04,17,05,42,1.60
2022,04,17,05,43,1.60
2022,04,17,05,44,1.60
2022,04,17,05,45,1.60
2022,04,17,05,46,1.60
2022,04,17,05,47,1.60
2022,04,17,05,48,1.60
2022,04,17,05,49,1.70
2022,04,17,05,50,1.70
2022,04,17,05,51,1.70
2022,04,17,05,52,1.80
2022,04,17,05,53,1.80
2022,04,17,05,54,1.70
2022,04,17,05,55,1.70
2022,04,17,05,56,1.70
2022,04,17,05,57,1.70
2022,04,17,05,58,1.70
2022,04,17,05,59,1.70
2022,04,17,06,00,1.70
2022,04,17,06,01,1.70
2022,04,17,06,02,1.60
2022,04,17,06,03,1.60
2022,04,17,06,04,1.60
2022,04,17,06,05,1.60
2022,04,17,06,06,1.60
2022,04,17,06,07,1.60
2022,04,17,06,08,1.60
2022,04,17,06,09,1.60
2022,04,17,06,10,1.70
2022,04,17,06,11,1.70
2022,04,17,06,12,1.70
2022,04,17,06,13,1.70
2022,04,17,06,14,1.70
2022,04,17,06,15,1.70
2022,04,17,06,16,1.70
2022,04,17,06,17,1.70
2022,04,17,06,18,1.80
2022,04,17,06,19,1.80
2022,04,17,06,20,1.80
2022,04,17,06,21,1.80
2022,04,17,06,22,1.90
2022,04,17,06,23,1.90
2022,04,17,06,24,1.90
2022,04,17,06,25,1.90
2022,04,17,06,26,1.80
2022,04,17,06,27,1.80
2022,04,17,06,28,1.80
2022,04,17,06,29,1.80
2022,04,17,06,30,1.70
2022,04,17,06,31,1.70
2022,04,17,06,32,1.70
2022,04,17,06,33,1.70
2022,04,17,06,34,1.70
2022,04,17,06,35,1.70
2022,04,17,06,36,1.70
2022,04,17,06,37,1.70
2022,04,17,06,38,1.70
2022,04,17,06,39,1.70
2022,04,17,06,40,1.70
2022,04,17,06,41,1.70
2022,04,17,06,42,1.60
2022,04,17,06,43,1.60
2022,04,17,06,44,1.60
2022,04,17,06,45,1.60
2022,04,17,06,46,1.70
2022,04,17,06,47,1.60
2022,04,17,06,48,1.60
2022,04,17,06,49,1.60
2022,04,17,06,50,1.70
2022,04,17,06,51,1.70
2022,04,17,06,52,1.70
2022,04,17,06,53,1.70
2022,04,17,06,54,1.70
2022,04,17,06,55,1.80
2022,04,17,06,56,1.80
2022,04,17,06,57,1.80
2022,04,17,06,58,1.80
2022,04,17,06,59,1.90
2022,04,17,07,00,1.90
2022,04,17,07,01,2.00
2022,04,17,07,02,2.00
2022,04,17,07,03,2.10
2022,04,17,07,04,2.10
2022,04,17,07,05,2.10
2022,04,17,07,06,2.10
2022,04,17,07,07,2.20
2022,04,17,07,08,2.20
2022,04,17,07,09,2.20
2022,04,17,07,10,2.30
2022,04,17,07,11,2.30
2022,04,17,07,12,2.30
2022,04,17,07,13,2.30
2022,04,17,07,14,2.30
2022,04,17,07,15,2.30
2022,04,17,07,16,2.30
2022,04,17,07,17,2.40
2022,04,17,07,18,2.40
2022,04,17,07,19,2.40
2022,04,17,07,20,2.40
2022,04,17,07,21,2.50
2022,04,17,07,22,2.50
2022,04,17,07,23,2.60
2022,04,17,07,24,2.60
2022,04,17,07,25,2.70
2022,04,17,07,26,2.70
2022,04,17,07,27,2.70
2022,04,17,07,28,2.70
2022,04,17,07,29,2.70
2022,04,17,07,30,2.70
2022,04,17,07,31,2.70
2022,04,17,07,32,2.70
2022,04,17,07,33,2.80
2022,04,17,07,34,2.80
2022,04,17,07,35,2.90
2022,04,17,07,36,2.90
2022,04,17,07,37,3.00
2022,04,17,07,38,3.00
2022,04,17,07,39,3.10
2022,04,17,07,40,3.10
2022,04,17,07,41,3.20
2022,04,17,07,42,3.20
2022,04,17,07,43,3.20
2022,04,17,07,44,3.30
2022,04,17,07,45,3.30
2022,04,17,07,46,3.40
2022,04,17,07,47,3.50
2022,04,17,07,48,3.50
2022,04,17,07,49,3.60
2022,04,17,07,50,3.60
2022,04,17,07,51,3.60
2022,04,17,07,52,3.70
2022,04,17,07,53,3.70
2022,04,17,07,54,3.80
2022,04,17,07,55,3.80
2022,04,17,07,56,3.90
2022,04,17,07,57,4.00
2022,04,17,07,58,4.10
2022,04,17,07,59,4.10
2022,04,17,08,00,4.20
2022,04,17,08,01,4.30
2022,04,17,08,02,4.30
2022,04,17,08,03,4.30
2022,04,17,08,04,4.40
2022,04,17,08,05,4.50
2022,04,17,08,06,4.60
2022,04,17,08,07,4.70
2022,04,17,08,08,4.80
2022,04,17,08,09,4.90
2022,04,17,08,10,5.00
2022,04,17,08,11,5.10
2022,04,17,08,12,5.20
2022,04,17,08,13,5.30
2022,04,17,08,14,5.40
2022,04,17,08,15,5.50
2022,04,17,08,16,5.70
2022,04,17,08,17,5.80
2022,04,17,08,18,5.90
2022,04,17,08,19,6.00
2022,04,17,08,20,6.00
2022,04,17,08,21,6.10
2022,04,17,08,22,6.10
2022,04,17,08,23,6.20
2022,04,17,08,24,6.20
2022,04,17,08,25,6.30
2022,04,17,08,26,6.30
2022,04,17,08,27,6.40
2022,04,17,08,28,6.40
2022,04,17,08,29,6.50
2022,04,17,08,30,6.50
2022,04,17,08,31,6.50
2022,04,17,08,32,6.60
2022,04,17,08,33,6.60
2022,04,17,08,34,6.60
2022,04,17,08,35,6.60
2022,04,17,08,36,6.60
2022,04,17,08,37,6.60
2022,04,17,08,38,6.60
2022,04,17,08,39,6.60
2022,04,17,08,40,6.60
2022,04,17,08,41,6.60
2022,04,17,08,42,6.60
2022,04,17,08,43,6.60
2022,04,17,08,44,6.60
2022,04,17,08,45,6.70
2022,04,17,08,46,6.70
2022,04,17,08,47,6.80
2022,04,17,08,48,6.80
2022,04,17,08,49,6.80
2022,04,17,08,50,6.90
2022,04,17,08,51,6.90
2022,04,17,08,52,7.00
2022,04,17,08,53,7.00
2022,04,17,08,54,7.10
2022,04,17,08,55,7.20
2022,04,17,08,56,7.20
2022,04,17,08,57,7.20
2022,04,17,08,58,7.30
2022,04,17,08,59,7.30
2022,04,17,09,00,7.30
2022,04,17,09,01,7.30
2022,04,17,09,02,7.30
2022,04,17,09,03,7.40
2022,04,17,09,04,7.40
2022,04,17,09,05,7.50
2022,04,17,09,06,7.50
2022,04,17,09,07,7.60
2022,04,17,09,08,7.60
2022,04,17,09,09,7.70
2022,04,17,09,10,7.70
2022,04,17,09,11,7.70
2022,04,17,09,12,7.70
2022,04,17,09,13,7.70
2022,04,17,09,14,7.70
2022,04,17,09,15,7.70
2022,04,17,09,16,7.70
2022,04,17,09,17,7.70
2022,04,17,09,18,7.80
2022,04,17,09,19,7.80
2022,04,17,09,20,7.80
2022,04,17,09,21,7.80
2022,04,17,09,22,7.80
2022,04,17,09,23,7.80
2022,04,17,09,24,7.80
2022,04,17,09,25,7.80
2022,04,17,09,26,7.80
2022,04,17,09,27,7.80
2022,04,17,09,28,7.70
2022,04,17,09,29,7.70
2022,04,17,09,30,7.70
2022,04,17,09,31,7.80
2022,04,17,09,32,7.80
2022,04,17,09,33,7.90
2022,04,17,09,34,7.90
2022,04,17,09,35,8.00
2022,04,17,09,36,8.00
2022,04,17,09,37,8.00
2022,04,17,09,38,8.00
2022,04,17,09,39,8.10
2022,04,17,09,40,8.10
2022,04,17,09,41,8.10
2022,04,17,09,42,8.10
2022,04,17,09,43,8.10
2022,04,17,09,44,8.10
2022,04,17,09,45,8.10
2022,04,17,09,46,8.10
2022,04,17,09,47,8.10
2022,04,17,09,48,8.10
2022,04,17,09,49,8.20
2022,04,17,09,50,8.10
2022,04,17,09,51,8.20
2022,04,17,09,52,8.20
2022,04,17,09,53,8.10
2022,04,17,09,54,8.10
2022,04,17,09,55,8.00
2022,04,17,09,56,8.00
2022,04,17,09,57,8.00
2022,04,17,09,58,8.00
2022,04,17,09,59,8.00
2022,04,17,10,00,8.00
2022,04,17,10,01,8.00
2022,04,17,10,02,7.90
2022,04,17,10,03,7.90
2022,04,17,10,04,7.90
2022,04,17,10,05,7.90
2022,04,17,10,06,7.90
2022,04,17,10,07,8.00
2022,04,17,10,08,8.00
2022,04,17,10,09,8.00
2022,04,17,10,10,8.10
2022,04,17,10,11,8.10
2022,04,17,10,12,8.10
2022,04,17,10,13,8.20
2022,04,17,10,14,8.20
2022,04,17,10,15,8.20
2022,04,17,10,16,8.20
2022,04,17,10,17,8.30
2022,04,17,10,18,8.40
2022,04,17,10,19,8.40
2022,04,17,10,20,8.50
2022,04,17,10,21,8.50
2022,04,17,10,22,8.50
2022,04,17,10,23,8.50
2022,04,17,10,24,8.50
2022,04,17,10,25,8.60
2022,04,17,10,26,8.60
2022,04,17,10,27,8.70
2022,04,17,10,28,8.80
2022,04,17,10,29,8.80
2022,04,17,10,30,8.90
2022,04,17,10,31,8.90
2022,04,17,10,32,9.00
2022,04,17,10,33,9.10
2022,04,17,10,34,9.10
2022,04,17,10,35,9.20
2022,04,17,10,36,9.20
2022,04,17,10,37,9.10
2022,04,17,10,38,9.00
2022,04,17,10,39,9.00
2022,04,17,10,40,9.00
2022,04,17,10,41,9.00
2022,04,17,10,42,9.00
2022,04,17,10,43,9.00
2022,04,17,10,44,8.90
2022,04,17,10,45,8.90
2022,04,17,10,46,8.90
2022,04,17,10,47,8.90
2022,04,17,10,48,8.90
2022,04,17,10,49,9.00
2022,04,17,10,50,9.00
2022,04,17,10,51,9.10
2022,04,17,10,52,9.10
2022,04,17,10,53,9.20
2022,04,17,10,54,9.30
2022,04,17,10,55,9.30
2022,04,17,10,56,9.20
2022,04,17,10,57,9.20
2022,04,17,10,58,9.20
2022,04,17,10,59,9.20
2022,04,17,11,00,9.20
2022,04,17,11,01,9.10
2022,04,17,11,02,9.10
2022,04,17,11,03,9.10
2022,04,17,11,04,9.10
2022,04,17,11,05,9.20
2022,04,17,11,06,9.20
2022,04,17,11,07,9.20
2022,04,17,11,08,9.30
2022,04,17,11,09,9.30
2022,04,17,11,10,9.30
2022,04,17,11,11,9.30
2022,04,17,11,12,9.30
2022,04,17,11,13,9.40
2022,04,17,11,14,9.40
2022,04,17,11,15,9.40
2022,04,17,11,16,9.40
2022,04,17,11,17,9.40
2022,04,17,11,18,9.50
2022,04,17,11,19,9.50
2022,04,17,11,20,9.50
2022,04,17,11,21,9.40
2022,04,17,11,22,9.40
2022,04,17,11,23,9.40
2022,04,17,11,24,9.40
2022,04,17,11,25,9.50
2022,04,17,11,26,9.50
2022,04,17,11,27,9.50
2022,04,17,11,28,9.50
2022,04,17,11,29,9.50
2022,04,17,11,30,9.50
2022,04,17,11,31,9.50
2022,04,17,11,32,9.50
2022,04,17,11,33,9.40
2022,04,17,11,34,9.50
2022,04,17,11,35,9.50
2022,04,17,11,36,9.50
2022,04,17,11,37,9.50
2022,04,17,11,38,9.50
2022,04,17,11,39,9.50
2022,04,17,11,40,9.60
2022,04,17,11,41,9.60
2022,04,17,11,42,9.60
2022,04,17,11,43,9.60
2022,04,17,11,44,9.60
2022,04,17,11,45,9.60
2022,04,17,11,46,9.60
2022,04,17,11,47,9.70
2022,04,17,11,48,9.80
2022,04,17,11,49,9.80
2022,04,17,11,50,9.90
2022,04,17,11,51,9.90
2022,04,17,11,52,9.80
2022,04,17,11,53,9.70
2022,04,17,11,54,9.70
2022,04,17,11,55,9.70
2022,04,17,11,56,9.80
2022,04,17,11,57,9.80
2022,04,17,11,58,9.80
2022,04,17,11,59,9.70
2022,04,17,12,00,9.70
2022,04,17,12,01,9.70
2022,04,17,12,02,9.60
2022,04,17,12,03,9.60
2022,04,17,12,04,9.60
2022,04,17,12,05,9.60
2022,04,17,12,06,9.60
2022,04,17,12,07,9.60
2022,04,17,12,08,9.70
2022,04,17,12,09,9.70
2022,04,17,12,10,9.70
2022,04,17,12,11,9.70
2022,04,17,12,12,9.70
2022,04,17,12,13,9.80
2022,04,17,12,14,9.80
2022,04,17,12,15,9.80
2022,04,17,12,16,9.90
2022,04,17,12,17,9.90
2022,04,17,12,18,9.80
2022,04,17,12,19,9.70
2022,04,17,12,20,9.70
2022,04,17,12,21,9.60
2022,04,17,12,22,9.60
2022,04,17,12,23,9.70
2022,04,17,12,24,9.60
2022,04,17,12,25,9.60
2022,04,17,12,26,9.70
2022,04,17,12,27,9.70
2022,04,17,12,28,9.70
2022,04,17,12,29,9.80
2022,04,17,12,30,9.80
2022,04,17,12,31,9.80
2022,04,17,12,32,9.80
2022,04,17,12,33,9.90
2022,04,17,12,34,9.90
2022,04,17,12,35,9.90
2022,04,17,12,36,9.90
2022,04,17,12,37,10.00
2022,04,17,12,38,9.90
2022,04,17,12,39,9.90
2022,04,17,12,40,10.00
2022,04,17,12,41,10.00
2022,04,17,12,42,10.00
2022,04,17,12,43,9.90
2022,04,17,12,44,9.90
2022,04,17,12,45,9.80
2022,04,17,12,46,9.80
2022,04,17,12,47,9.80
2022,04,17,12,48,9.80
2022,04,17,12,49,9.80
2022,04,17,12,50,9.90
2022,04,17,12,51,9.90
2022,04,17,12,52,9.90
2022,04,17,12,53,9.90
2022,04,17,12,54,9.90
2022,04,17,12,55,9.90
2022,04,17,12,56,9.90
2022,04,17,12,57,10.00
2022,04,17,12,58,10.00
2022,04,17,12,59,9.90
2022,04,17,13,00,9.90
2022,04,17,13,01,10.00
2022,04,17,13,02,10.00
2022,04,17,13,03,10.00
2022,04,17,13,04,10.00
2022,04,17,13,05,9.90
2022,04,17,13,06,9.90
2022,04,17,13,07,9.80
2022,04,17,13,08,9.80
2022,04,17,13,09,9.80
2022,04,17,13,10,9.70
2022,04,17,13,11,9.70
2022,04,17,13,12,9.70
2022,04,17,13,13,9.70
2022,04,17,13,14,9.70
2022,04,17,13,15,9.80
2022,04,17,13,16,9.90
2022,04,17,13,17,9.90
2022,04,17,13,18,9.90
2022,04,17,13,19,9.90
2022,04,17,13,20,9.90
2022,04,17,13,21,9.90
2022,04,17,13,22,9.90
2022,04,17,13,23,9.90
2022,04,17,13,24,9.90
2022,04,17,13,25,10.00
2022,04,17,13,26,10.10
2022,04,17,13,27,10.10
2022,04,17,13,28,10.20
2022,04,17,13,29,10.10
2022,04,17,13,30,10.10
2022,04,17,13,31,10.10
2022,04,17,13,32,10.20
2022,04,17,13,33,10.10
2022,04,17,13,34,10.10
2022,04,17,13,35,10.10
2022,04,17,13,36,10.10
2022,04,17,13,37,10.00
2022,04,17,13,38,10.00
2022,04,17,13,39,10.00
2022,04,17,13,40,10.10
2022,04,17,13,41,10.10
2022,04,17,13,42,10.20
2022,04,17,13,43,10.20
2022,04,17,13,44,10.30
2022,04,17,13,45,10.30
2022,04,17,13,46,10.30
2022,04,17,13,47,10.20
2022,04,17,13,48,10.10
2022,04,17,13,49,10.10
2022,04,17,13,50,10.00
2022,04,17,13,51,9.90
2022,04,17,13,52,9.80
2022,04,17,13,53,9.70
2022,04,17,13,54,9.60
2022,04,17,13,55,9.60
2022,04,17,13,56,9.50
2022,04,17,13,57,9.50
2022,04,17,13,58,9.50
2022,04,17,13,59,9.50
2022,04,17,14,00,9.50
2022,04,17,14,01,9.50
2022,04,17,14,02,9.40
2022,04,17,14,03,9.40
2022,04,17,14,04,9.40
2022,04,17,14,05,9.40
2022,04,17,14,06,9.40
2022,04,17,14,07,9.40
2022,04,17,14,08,9.50
2022,04,17,14,09,9.50
2022,04,17,14,10,9.50
2022,04,17,14,11,9.50
2022,04,17,14,12,9.50
2022,04,17,14,13,9.50
2022,04,17,14,14,9.60
2022,04,17,14,15,9.60
2022,04,17,14,16,9.60
2022,04,17,14,17,9.60
2022,04,17,14,18,9.60
2022,04,17,14,19,9.60
2022,04,17,14,20,9.60
2022,04,17,14,21,9.60
2022,04,17,14,22,9.70
2022,04,17,14,23,9.70
2022,04,17,14,24,9.80
2022,04,17,14,25,9.80
2022,04,17,14,26,9.80
2022,04,17,14,27,9.80
2022,04,17,14,28,9.80
2022,04,17,14,29,9.70
2022,04,17,14,30,9.70
2022,04,17,14,31,9.70
2022,04,17,14,32,9.70
2022,04,17,14,33,9.70
2022,04,17,14,34,9.70
2022,04,17,14,35,9.70
2022,04,17,14,36,9.70
2022,04,17,14,37,9.70
2022,04,17,14,38,9.70
2022,04,17,14,39,9.70
2022,04,17,14,40,9.70
2022,04,17,14,41,9.70
2022,04,17,14,42,9.70
2022,04,17,14,43,9.70
2022,04,17,14,44,9.70
2022,04,17,14,45,9.70
2022,04,17,14,46,9.70
2022,04,17,14,47,9.70
2022,04,17,14,48,9.70
2022,04,17,14,49,9.70
2022,04,17,14,50,9.70
2022,04,17,14,51,9.70
2022,04,17,14,52,9.80
2022,04,17,14,53,9.80
2022,04,17,14,54,9.80
2022,04,17,14,55,9.90
2022,04,17,14,56,10.00
2022,04,17,14,57,10.00
2022,04,17,14,58,10.10
2022,04,17,14,59,10.10
2022,04,17,15,00,10.20
2022,04,17,15,01,10.20
2022,04,17,15,02,10.20
2022,04,17,15,03,10.10
2022,04,17,15,04,10.10
2022,04,17,15,05,10.10
2022,04,17,15,06,10.10
2022,04,17,15,07,10.10
2022,04,17,15,08,10.10
2022,04,17,15,09,10.10
2022,04,17,15,10,10.10
2022,04,17,15,11,10.10
2022,04,17,15,12,10.20
2022,04,17,15,13,10.20
2022,04,17,15,14,10.20
2022,04,17,15,15,10.30
2022,04,17,15,16,10.30
2022,04,17,15,17,10.30
2022,04,17,15,18,10.20
2022,04,17,15,19,10.20
2022,04,17,15,20,10.20
2022,04,17,15,21,10.20
2022,04,17,15,22,10.20
2022,04,17,15,23,10.20
2022,04,17,15,24,10.20
2022,04,17,15,25,10.20
2022,04,17,15,26,10.30
2022,04,17,15,27,10.30
2022,04,17,15,28,10.30
2022,04,17,15,29,10.40
2022,04,17,15,30,10.40
2022,04,17,15,31,10.40
2022,04,17,15,32,10.50
2022,04,17,15,33,10.50
2022,04,17,15,34,10.50
2022,04,17,15,35,10.60
2022,04,17,15,36,10.60
2022,04,17,15,37,10.60
2022,04,17,15,38,10.50
2022,04,17,15,39,10.60
2022,04,17,15,40,10.60
2022,04,17,15,41,10.50
2022,04,17,15,42,10.50
2022,04,17,15,43,10.50
2022,04,17,15,44,10.40
2022,04,17,15,45,10.40
2022,04,17,15,46,10.40
2022,04,17,15,47,10.50
2022,04,17,15,48,10.50
2022,04,17,15,49,10.50
2022,04,17,15,50,10.50
2022,04,17,15,51,10.50
2022,04,17,15,52,10.50
2022,04,17,15,53,10.60
2022,04,17,15,54,10.60
2022,04,17,15,55,10.60
2022,04,17,15,56,10.70
2022,04,17,15,57,10.70
2022,04,17,15,58,10.70
2022,04,17,15,59,10.70
2022,04,17,16,00,10.70
2022,04,17,16,01,10.70
2022,04,17,16,02,10.70
2022,04,17,16,03,10.70
2022,04,17,16,04,10.60
2022,04,17,16,05,10.60
2022,04,17,16,06,10.60
2022,04,17,16,07,10.60
2022,04,17,16,08,10.60
2022,04,17,16,09,10.70
2022,04,17,16,10,10.70
2022,04,17,16,11,10.60
2022,04,17,16,12,10.60
2022,04,17,16,13,10.60
2022,04,17,16,14,10.60
2022,04,17,16,15,10.50
2022,04,17,16,16,10.60
2022,04,17,16,17,10.60
2022,04,17,16,18,10.60
2022,04,17,16,19,10.60
2022,04,17,16,20,10.60
2022,04,17,16,21,10.60
2022,04,17,16,22,10.50
2022,04,17,16,23,10.50
2022,04,17,16,24,10.50
2022,04,17,16,25,10.60
2022,04,17,16,26,10.60
2022,04,17,16,27,10.60
2022,04,17,16,28,10.70
2022,04,17,16,29,10.70
2022,04,17,16,30,10.70
2022,04,17,16,31,10.70
2022,04,17,16,32,10.70
2022,04,17,16,33,10.70
2022,04,17,16,34,10.70
2022,04,17,16,35,10.70
2022,04,17,16,36,10.70
2022,04,17,16,37,10.80
2022,04,17,16,38,10.80
2022,04,17,16,39,10.80
2022,04,17,16,40,10.80
2022,04,17,16,41,10.80
2022,04,17,16,42,10.90
2022,04,17,16,43,10.90
2022,04,17,16,44,10.90
2022,04,17,16,45,10.90
2022,04,17,16,46,11.00
2022,04,17,16,47,11.00
2022,04,17,16,48,11.00
2022,04,17,16,49,11.10
2022,04,17,16,50,11.10
2022,04,17,16,51,11.00
2022,04,17,16,52,11.00
2022,04,17,16,53,11.00
2022,04,17,16,54,10.90
2022,04,17,16,55,10.90
2022,04,17,16,56,10.90
2022,04,17,16,57,10.90
2022,04,17,16,58,10.90
2022,04,17,16,59,10.90
2022,04,17,17,00,10.80
2022,04,17,17,01,10.80
2022,04,17,17,02,10.80
2022,04,17,17,03,10.80
2022,04,17,17,04,10.80
2022,04,17,17,05,10.80
2022,04,17,17,06,10.80
2022,04,17,17,07,10.80
2022,04,17,17,08,10.80
2022,04,17,17,09,10.80
2022,04,17,17,10,10.80
2022,04,17,17,11,10.70
2022,04,17,17,12,10.70
2022,04,17,17,13,10.70
2022,04,17,17,14,10.70
2022,04,17,17,15,10.70
2022,04,17,17,16,10.70
2022,04,17,17,17,10.70
2022,04,17,17,18,10.70
2022,04,17,17,19,10.70
2022,04,17,17,20,10.70
2022,04,17,17,21,10.70
2022,04,17,17,22,10.70
2022,04,17,17,23,10.70
2022,04,17,17,24,10.60
2022,04,17,17,25,10.60
2022,04,17,17,26,10.60
2022,04,17,17,27,10.60
2022,04,17,17,28,10.60
2022,04,17,17,29,10.50
2022,04,17,17,30,10.50
2022,04,17,17,31,10.50
2022,04,17,17,32,10.40
2022,04,17,17,33,10.40
2022,04,17,17,34,10.40
2022,04,17,17,35,10.40
2022,04,17,17,36,10.50
2022,04,17,17,37,10.50
2022,04,17,17,38,10.50
2022,04,17,17,39,10.50
2022,04,17,17,40,10.50
2022,04,17,17,41,10.50
2022,04,17,17,42,10.50
2022,04,17,17,43,10.50
2022,04,17,17,44,10.50
2022,04,17,17,45,10.50
2022,04,17,17,46,10.50
2022,04,17,17,47,10.50
2022,04,17,17,48,10.50
2022,04,17,17,49,10.50
2022,04,17,17,50,10.50
2022,04,17,17,51,10.50
2022,04,17,17,52,10.50
2022,04,17,17,53,10.50
2022,04,17,17,54,10.50
2022,04,17,17,55,10.50
2022,04,17,17,56,10.50